Home   Weather   Irving   Past weeks

Flag for USA Past Weather in Irving, Texas, USA — Yesterday and Last 2 Weeks

Now
49 °F

Mostly cloudy.


Feels Like: 43 °F
Forecast: 44 / 52 °F
Wind: 16 mph from North

Location: Dallas / Fort Worth International Airport

Current Time: Dec 6, 2016 at 2:09:02 pm

Latest Report: Dec 6, 2016 at 12:53 pm


Visibility: 10 mi

Pressure: 29.97 "Hg

Humidity: 77%

Dew Point: 42 °F

Location of IrvingLocation

Past Weather in Irving — Graph

°F

Irving Temperature Yesterday

Maximum temperature yesterday: 53 °F (at 12:53 pm)
Minimum temperature yesterday: 47 °F (at 4:53 am)
Average temperature yesterday: 50 °F

High & Low Weather Summary for the Past Weeks

 TemperatureHumidityPressure
High74 °F (Nov 22, 1:53 pm)97% (Dec 6, 6:53 am)30.42 "Hg (Dec 6, 6:53 am)
Low36 °F (Dec 1, 5:53 am)18% (Nov 28, 2:53 pm)29.41 "Hg (Nov 28, 1:53 pm)
Average57 °F62%29.98 "Hg
* Reported Nov 21 12:53 pm — Dec 6 12:53 pm, Irving, Weather by CustomWeather, © 2016

Note: Actual official high and low records may vary slightly from our data, if they occured in-between our weather recording intervals... More about our weather records

Advertising

Irving Weather History for the Previous 24 Hours

Scroll right to see more
 ConditionsComfort  
Time TempWeatherWind HumidityBarometerVisibility
12:53 pm
Tue, Dec 6
49 °FMostly cloudy.16 mph77%29.97 "Hg10 mi
11:53 am52 °FMore clouds than sun.14 mph72%29.98 "Hg10 mi
10:53 am51 °FMostly cloudy.17 mph74%29.99 "Hg10 mi
9:53 am50 °FPartly sunny.13 mph83%29.96 "Hg10 mi
8:53 am49 °FOvercast.13 mph90%29.93 "Hg9 mi
7:53 am49 °FLight rain. Fog.14 mph93%29.89 "Hg1 mi
6:53 am49 °FDrizzle. Fog.9 mph97%29.84 "Hg2 mi
5:53 am50 °FDrizzle. Fog.7 mph93%29.80 "Hg2 mi
4:53 am50 °FFog.5 mph93%29.77 "Hg5 mi
3:53 am50 °FLow clouds.No wind93%29.73 "Hg10 mi
2:53 am50 °FLow clouds.7 mph89%29.71 "Hg10 mi
1:53 am50 °FLow clouds.10 mph89%29.70 "Hg8 mi
12:53 am50 °FFog.9 mph89%29.70 "Hg5 mi
12:03 am50 °FFog.6 mph89%29.72 "Hg4 mi
11:53 pm
Mon, Dec 5
49 °FFog.7 mph93%29.71 "Hg3 mi
10:53 pm49 °FFog.6 mph90%29.72 "Hg5 mi
9:53 pm51 °FFog.8 mph86%29.72 "Hg6 mi
8:53 pm51 °FMostly cloudy.7 mph86%29.72 "Hg7 mi
7:53 pm51 °FOvercast.5 mph86%29.71 "Hg7 mi
6:53 pm51 °FFog.No wind86%29.70 "Hg6 mi
5:53 pm51 °FOvercast.No wind86%29.70 "Hg7 mi
4:53 pm51 °FFog.No wind86%29.71 "Hg6 mi
4:02 pm51 °FLight rain. Mostly cloudy.3 mph83%29.73 "Hg3 mi
3:53 pm51 °FLight rain. Fog.3 mph86%29.72 "Hg3 mi
2:53 pm51 °FRain. Overcast.3 mph83%29.75 "Hg3 mi
Weather by CustomWeather, © 2016

See weather overviewHow to use our weather pages